Tobias Bolanos Internatio, Costa Rica

8:54 PM CST on March 25, 2017 (GMT -0600)
Tobias Bolanos International

Weather History for MRPV - December, 2013

Change the Weather History Date:

Saturday, December 21, 2013

  Actual Average Record
Temperature  
Mean Temperature 74 °F -  
Max Temperature 83 °F 76 °F 82 °F (2006)
Min Temperature 64 °F 66 °F 62 °F (2010)
Cooling Degree Days 8    
Growing Degree Days 24 (Base 50)    
Moisture  
Dew Point 58 °F    
Average Humidity 55    
Maximum Humidity 78    
Minimum Humidity 33    
Precipitation  
Precipitation 0.00 in - - ()
Sea Level Pressure  
Sea Level Pressure 29.92 in    
Wind  
Wind Speed 9 mph ()    
Max Wind Speed 15 mph    
Max Gust Speed -    
Visibility 6.1 miles    
Events      
Averages and records for this station are not official NWS values.
T = Trace of Precipitation, MM = Missing Value Source: Averaged Metar Reports

Daily Weather History Graph

Daily Weather History Graph

Search for Another Location

Airport or City:

Trip Planner

Search our weather history database for the weather conditions in past years. The results will help you decide how hot, cold, wet, or windy it might be!

Date:

Astronomy

Dec. 21, 2013 Rise Set
Actual Time 5:48 AM CST 5:21 PM CST
Civil Twilight 5:25 AM CST 5:44 PM CST
Nautical Twilight 4:59 AM CST 6:10 PM CST
Astronomical Twilight 4:33 AM CST 6:36 PM CST
Moon 8:56 PM CST (12/21) 8:49 AM CST (12/21)
Length of Visible Light 12h 18m
Length of Day
11h 32m
Waning Gibbous, 84% of the Moon is Illuminated
Dec 21
Waning Gibbous
Dec 25
Last Quarter
Jan 1
New
Jan 7
First Quarter
Jan 15
Full

Hourly Weather History & Observations

Time (CST) Temp. Heat Index Dew Point Humidity Pressure Visibility Wind Dir Wind Speed Gust Speed Precip Events Conditions
6:00 AM 65 °F - 55 °F 62% 29.85 in 6 mi ESE 10.4 mph - -  
6:00 AM 64.4 °F - 55.4 °F 73% 29.98 in - ESE 10.4 mph - N/A   Clear
7:00 AM 68.0 °F - 53.6 °F 60% 29.99 in - ESE 6.9 mph - N/A   Clear
8:00 AM 73.4 °F - 55.4 °F 53% 30.01 in - ESE 10.4 mph - N/A   Clear
9:00 AM 75 °F - 55 °F 40% 29.86 in 6 mi East 10.4 mph - -   Scattered Clouds
9:00 AM 75.2 °F - 55.4 °F 50% 30.02 in 6.2 mi East 10.4 mph - N/A   Partly Cloudy
10:00 AM 77.0 °F - 57.2 °F 50% 30.01 in - East 11.5 mph - N/A   Clear
11:00 AM 78.8 °F - 57.2 °F 47% 29.97 in - ENE 13.8 mph - N/A   Clear
12:00 PM 81 °F - 57 °F 33% 29.76 in 6 mi East 12.7 mph - -   Scattered Clouds
12:00 PM 80.6 °F 81.1 °F 59.0 °F 48% 29.95 in 6.2 mi East 12.7 mph - N/A   Partly Cloudy
1:00 PM 82.4 °F 82.0 °F 57.2 °F 42% 29.92 in 6.2 mi East 6.9 mph - N/A   Partly Cloudy
2:00 PM 80.6 °F 81.1 °F 59.0 °F 48% 29.91 in 6.2 mi East 15.0 mph - N/A   Scattered Clouds
3:00 PM 80 °F - 57 °F 35% 29.75 in 6 mi East 13.8 mph - -   Partly Cloudy
3:00 PM 80.6 °F 80.8 °F 57.2 °F 45% 29.91 in 6.2 mi East 13.8 mph - N/A   Scattered Clouds
4:00 PM 78.8 °F - 57.2 °F 47% 29.92 in 6.2 mi ENE 12.7 mph - N/A   Partly Cloudy
4:43 PM 73.4 °F - 66.2 °F 78% 29.94 in 6.2 mi WSW 4.6 mph - N/A   Scattered Clouds
5:00 PM 73.4 °F - 66.2 °F 78% 29.94 in 6.2 mi West 4.6 mph - N/A   Scattered Clouds
6:00 PM 71 °F - 65 °F 78% 29.81 in 6 mi West 3.5 mph - -   Mostly Cloudy
6:00 PM 71.6 °F - 64.4 °F 78% 29.95 in 6.2 mi West 3.5 mph - N/A   Mostly Cloudy